• In Russia
  • List of Countries
  • For 7 days
  • Water Temperature
  • Satellite Maps
  • Weather Map
  • Weather Widgets
  • user-avatar
    Login

    Hourly Weather Zaafrana

    Today, 17 June, Monday

    Time Temperature Precipitation Wind Pressure Humidity
    00:00 +27°C° 0 mm 2 mps 742 mmHg 44%
    01:00 +26°C° 0 mm 1 mps 742 mmHg 47%
    02:00 +25°C° 0 mm 1 mps 742 mmHg 50%
    03:00 +25°C° 0 mm 1 mps 742 mmHg 50%
    04:00 +25°C° 0 mm 1 mps 742 mmHg 50%
    05:00 +24°C° 0 mm 1 mps 742 mmHg 50%
    06:00 +27°C° 0 mm 1 mps 742 mmHg 44%
    07:00 +30°C° 0 mm 2 mps 743 mmHg 37%
    08:00 +34°C° 0 mm 3 mps 743 mmHg 30%
    09:00 +35°C° 0 mm 4 mps 743 mmHg 26%
    10:00 +38°C° 0 mm 6 mps 743 mmHg 22%
    11:00 +40°C° 0 mm 7 mps 743 mmHg 19%
    12:00 +40°C° 0 mm 7 mps 743 mmHg 18%
    13:00 +40°C° 0 mm 8 mps 742 mmHg 17%
    14:00 +41°C° 0 mm 8 mps 742 mmHg 16%
    15:00 +40°C° 0 mm 7 mps 742 mmHg 17%
    16:00 +40°C° 0 mm 7 mps 742 mmHg 17%
    17:00 +39°C° 0 mm 6 mps 741 mmHg 17%
    18:00 +36°C° 0 mm 6 mps 742 mmHg 24%
    19:00 +34°C° 0 mm 5 mps 742 mmHg 30%
    20:00 +30°C° 0 mm 4 mps 742 mmHg 36%
    21:00 +29°C° 0 mm 4 mps 743 mmHg 43%
    22:00 +28°C° 0 mm 4 mps 743 mmHg 51%
    23:00 +27°C° 0 mm 3 mps 743 mmHg 58%

    Tomorrow, 18 June, Tuesday

    Time Temperature Precipitation Wind Pressure Humidity
    00:00 +26°C° 0 mm 3 mps 743 mmHg 57%
    01:00 +26°C° 0 mm 2 mps 743 mmHg 56%
    02:00 +26°C° 0 mm 2 mps 743 mmHg 55%
    03:00 +25°C° 0 mm 2 mps 743 mmHg 56%
    04:00 +24°C° 0 mm 1 mps 743 mmHg 58%
    05:00 +24°C° 0 mm 1 mps 743 mmHg 59%
    06:00 +27°C° 0 mm 1 mps 743 mmHg 50%
    07:00 +29°C° 0 mm 1 mps 744 mmHg 41%
    08:00 +32°C° 0 mm 1 mps 744 mmHg 32%
    09:00 +35°C° 0 mm 2 mps 744 mmHg 28%
    10:00 +36°C° 0 mm 3 mps 744 mmHg 24%
    11:00 +38°C° 0 mm 3 mps 744 mmHg 20%
    12:00 +38°C° 0 mm 4 mps 744 mmHg 19%
    13:00 +40°C° 0 mm 4 mps 743 mmHg 17%
    14:00 +40°C° 0 mm 4 mps 743 mmHg 16%
    15:00 +40°C° 0 mm 4 mps 743 mmHg 16%
    16:00 +40°C° 0 mm 4 mps 742 mmHg 15%
    17:00 +40°C° 0 mm 5 mps 742 mmHg 15%
    18:00 +36°C° 0 mm 4 mps 742 mmHg 20%
    19:00 +34°C° 0 mm 4 mps 743 mmHg 25%
    20:00 +32°C° 0 mm 4 mps 743 mmHg 30%
    21:00 +30°C° 0 mm 3 mps 743 mmHg 34%
    22:00 +30°C° 0 mm 3 mps 743 mmHg 37%
    23:00 +29°C° 0 mm 3 mps 743 mmHg 40%

    Day after tomorrow, 19 June, Wednesday

    Time Temperature Precipitation Wind Pressure Humidity
    00:00 +28°C° 0 mm 3 mps 743 mmHg 42%
    01:00 +27°C° 0 mm 2 mps 742 mmHg 45%
    02:00 +27°C° 0 mm 1 mps 742 mmHg 47%
    03:00 +26°C° 0 mm 1 mps 742 mmHg 46%
    04:00 +26°C° 0 mm 1 mps 742 mmHg 44%
    05:00 +26°C° 0 mm 1 mps 742 mmHg 43%
    06:00 +28°C° 0 mm 1 mps 742 mmHg 37%
    07:00 +31°C° 0 mm 2 mps 742 mmHg 32%
    08:00 +35°C° 0 mm 2 mps 743 mmHg 26%
    09:00 +36°C° 0 mm 3 mps 743 mmHg 24%
    10:00 +38°C° 0 mm 3 mps 743 mmHg 21%
    11:00 +40°C° 0 mm 4 mps 743 mmHg 18%
    12:00 +41°C° 0 mm 5 mps 742 mmHg 16%
    13:00 +41°C° 0 mm 5 mps 742 mmHg 15%
    14:00 +42°C° 0 mm 6 mps 741 mmHg 14%
    15:00 +41°C° 0 mm 5 mps 741 mmHg 14%
    16:00 +41°C° 0 mm 5 mps 741 mmHg 14%
    17:00 +40°C° 0 mm 5 mps 741 mmHg 14%
    18:00 +37°C° 0 mm 5 mps 741 mmHg 20%
    19:00 +34°C° 0 mm 4 mps 742 mmHg 27%
    20:00 +30°C° 0 mm 4 mps 742 mmHg 34%
    21:00 +29°C° 0 mm 4 mps 742 mmHg 36%
    22:00 +29°C° 0 mm 3 mps 742 mmHg 38%
    23:00 +28°C° 0 mm 3 mps 743 mmHg 40%

    20 June, Thursday

    Time Temperature Precipitation Wind Pressure Humidity
    00:00 +27°C° 0 mm 2 mps 742 mmHg 41%
    01:00 +26°C° 0 mm 2 mps 742 mmHg 42%
    02:00 +26°C° 0 mm 2 mps 742 mmHg 43%
    03:00 +25°C° 0 mm 2 mps 742 mmHg 42%
    04:00 +25°C° 0 mm 2 mps 741 mmHg 42%
    05:00 +25°C° 0 mm 2 mps 741 mmHg 41%
    06:00 +28°C° 0 mm 2 mps 742 mmHg 34%
    07:00 +30°C° 0 mm 1 mps 742 mmHg 28%
    08:00 +33°C° 0 mm 1 mps 742 mmHg 21%
    09:00 +36°C° 0 mm 2 mps 742 mmHg 19%
    10:00 +38°C° 0 mm 2 mps 742 mmHg 16%
    11:00 +39°C° 0 mm 3 mps 742 mmHg 13%
    12:00 +40°C° 0 mm 3 mps 742 mmHg 13%
    13:00 +42°C° 0 mm 4 mps 741 mmHg 12%
    14:00 +42°C° 0 mm 4 mps 741 mmHg 12%
    15:00 +42°C° 0 mm 4 mps 741 mmHg 12%
    16:00 +42°C° 0 mm 4 mps 740 mmHg 12%
    17:00 +40°C° 0 mm 3 mps 740 mmHg 13%
    18:00 +38°C° 0 mm 3 mps 741 mmHg 16%
    19:00 +35°C° 0 mm 3 mps 741 mmHg 19%
    20:00 +33°C° 0 mm 3 mps 741 mmHg 23%
    21:00 +31°C° 0 mm 3 mps 741 mmHg 26%
    22:00 +32°C° 0 mm 4 mps 741 mmHg 29%
    23:00 +30°C° 0 mm 4 mps 741 mmHg 32%

    21 June, Friday

    Time Temperature Precipitation Wind Pressure Humidity
    00:00 +30°C° 0 mm 3 mps 741 mmHg 33%
    01:00 +29°C° 0 mm 3 mps 741 mmHg 33%
    02:00 +28°C° 0 mm 2 mps 741 mmHg 34%
    03:00 +28°C° 0 mm 2 mps 741 mmHg 33%
    04:00 +28°C° 0 mm 2 mps 741 mmHg 32%
    05:00 +27°C° 0 mm 2 mps 741 mmHg 32%
    06:00 +30°C° 0 mm 3 mps 741 mmHg 27%
    07:00 +33°C° 0 mm 3 mps 741 mmHg 22%
    08:00 +36°C° 0 mm 3 mps 741 mmHg 17%
    09:00 +38°C° 0 mm 4 mps 741 mmHg 16%
    10:00 +40°C° 0 mm 4 mps 741 mmHg 14%
    11:00 +42°C° 0 mm 4 mps 741 mmHg 13%
    12:00 +42°C° 0 mm 4 mps 740 mmHg 12%
    13:00 +43°C° 0 mm 4 mps 740 mmHg 12%
    14:00 +44°C° 0 mm 4 mps 739 mmHg 11%
    15:00 +43°C° 0 mm 5 mps 739 mmHg 12%
    16:00 +43°C° 0 mm 5 mps 739 mmHg 12%
    17:00 +42°C° 0 mm 6 mps 738 mmHg 13%
    18:00 +40°C° 0 mm 6 mps 739 mmHg 17%
    19:00 +36°C° 0 mm 5 mps 739 mmHg 21%
    20:00 +34°C° 0 mm 5 mps 739 mmHg 25%
    21:00 +33°C° 0 mm 5 mps 740 mmHg 28%
    22:00 +32°C° 0 mm 4 mps 740 mmHg 31%
    23:00 +30°C° 0 mm 4 mps 740 mmHg 33%

    22 June, Saturday

    Time Temperature Precipitation Wind Pressure Humidity
    00:00 +29°C° 0 mm 4 mps 740 mmHg 33%
    01:00 +29°C° 0 mm 4 mps 740 mmHg 33%
    02:00 +28°C° 0 mm 4 mps 740 mmHg 32%
    03:00 +28°C° 0 mm 4 mps 740 mmHg 32%
    04:00 +28°C° 0 mm 3 mps 740 mmHg 32%
    05:00 +27°C° 0 mm 3 mps 740 mmHg 31%
    06:00 +29°C° 0 mm 3 mps 740 mmHg 28%
    07:00 +32°C° 0 mm 4 mps 741 mmHg 24%
    08:00 +35°C° 0 mm 4 mps 741 mmHg 20%
    09:00 +36°C° 0 mm 4 mps 741 mmHg 19%
    10:00 +38°C° 0 mm 4 mps 741 mmHg 17%
    11:00 +40°C° 0 mm 4 mps 741 mmHg 15%
    12:00 +41°C° 0 mm 4 mps 740 mmHg 15%
    13:00 +42°C° 0 mm 4 mps 740 mmHg 15%
    14:00 +43°C° 0 mm 5 mps 740 mmHg 14%
    15:00 +42°C° 0 mm 5 mps 740 mmHg 15%
    16:00 +42°C° 0 mm 5 mps 740 mmHg 16%
    17:00 +41°C° 0 mm 5 mps 739 mmHg 16%
    18:00 +37°C° 0 mm 5 mps 740 mmHg 23%
    19:00 +35°C° 0 mm 5 mps 740 mmHg 29%
    20:00 +32°C° 0 mm 4 mps 741 mmHg 36%
    21:00 +30°C° 0 mm 4 mps 741 mmHg 43%
    22:00 +28°C° 0 mm 4 mps 742 mmHg 50%
    23:00 +27°C° 0 mm 4 mps 742 mmHg 58%
    Show more